,,,PA_Meas_PMT16A,,PR_Meas_QMR101_102,,RH_Meas_QMH101,,SR_Meas_QMS101,,TA_Meas_QMH101,,GenWind,,GenWind,
date,time,status,PA,status,PR,status,RH,status,SR,status,TA,status,DirAvg,status,SpdAvg,
2010-04-24, 00:00:04,VALID,1001.27,VALID,0,VALID,90.4797,VALID,0,VALID,24.3452,VALID,121,VALID,0.898047,
2010-04-24, 00:01:04,VALID,1001.24,VALID,0,VALID,90.5331,VALID,0,VALID,24.3452,VALID,121,VALID,0.683203,
2010-04-24, 00:02:04,VALID,1001.22,VALID,0,VALID,90.5178,VALID,0,VALID,24.3062,VALID,121,VALID,0.672656,
2010-04-24, 00:03:04,VALID,1001.18,VALID,0,VALID,90.6094,VALID,0,VALID,24.2866,VALID,121,VALID,0.537109,
2010-04-24, 00:04:04,VALID,1001.19,VALID,0,VALID,90.7314,VALID,0,VALID,24.2866,VALID,121,VALID,0.4875,
2010-04-24, 00:05:04,VALID,1001.14,VALID,0,VALID,90.8535,VALID,0,VALID,24.2866,VALID,121,VALID,0.455469,
2010-04-24, 00:06:04,VALID,1001.14,VALID,0,VALID,90.8993,VALID,0,VALID,24.2476,VALID,121,VALID,0.375391,
2010-04-24, 00:07:04,VALID,1001.11,VALID,0,VALID,90.7314,VALID,0,VALID,24.2281,VALID,121,VALID,0.320313,
2010-04-24, 00:08:04,VALID,1001.14,VALID,0,VALID,90.472,VALID,0,VALID,24.1696,VALID,121,VALID,0.283203,
2010-04-24, 00:09:04,VALID,1001.11,VALID,0,VALID,90.3118,VALID,0,VALID,24.0915,VALID,121,VALID,0.171094,
2010-04-24, 00:10:04,VALID,1001.14,VALID,0,VALID,90.4186,VALID,0,VALID,23.9921,VALID,121,VALID,0,
2010-04-24, 00:11:04,VALID,1001.1,VALID,0,VALID,90.8459,VALID,0,VALID,23.9744,VALID,121,VALID,0,
2010-04-24, 00:12:04,VALID,1001.08,VALID,0,VALID,91.1129,VALID,0,VALID,23.9744,VALID,121,VALID,0,
2010-04-24, 00:13:04,VALID,1001.1,VALID,0,VALID,91.3342,VALID,0,VALID,23.9549,VALID,121,VALID,0,
2010-04-24, 00:14:04,VALID,1001.09,VALID,0,VALID,91.5707,VALID,0,VALID,23.9744,VALID,121,VALID,0,
2010-04-24, 00:15:04,VALID,1001.08,VALID,0,VALID,91.6241,VALID,0,VALID,23.9744,VALID,121,VALID,0,
2010-04-24, 00:16:04,VALID,1001.06,VALID,0,VALID,91.6317,VALID,0,VALID,23.9336,VALID,121,VALID,0,
2010-04-24, 00:17:04,VALID,1001.05,VALID,0,VALID,91.7385,VALID,0,VALID,23.9354,VALID,121,VALID,0,
2010-04-24, 00:18:04,VALID,1001.07,VALID,0,VALID,91.7996,VALID,0,VALID,23.9354,VALID,121,VALID,0,
2010-04-24, 00:19:04,VALID,1001.04,VALID,0,VALID,91.8759,VALID,0,VALID,23.9354,VALID,121,VALID,0,
2010-04-24, 00:20:04,VALID,1001.05,VALID,0,VALID,91.9064,VALID,0,VALID,23.9159,VALID,121,VALID,0,
2010-04-24, 00:21:04,VALID,1001.07,VALID,0,VALID,91.9369,VALID,0,VALID,23.9159,VALID,121,VALID,0,
2010-04-24, 00:22:04,VALID,1001.09,VALID,0,VALID,91.998,VALID,0,VALID,23.875,VALID,121,VALID,0,
2010-04-24, 00:23:04,VALID,1001.09,VALID,0,VALID,92.0819,VALID,0,VALID,23.8963,VALID,121,VALID,0,
2010-04-24, 00:24:04,VALID,1001.11,VALID,0,VALID,92.1277,VALID,0,VALID,23.875,VALID,121,VALID,0,
2010-04-24, 00:25:04,VALID,1001.08,VALID,0,VALID,92.1887,VALID,0,VALID,23.9159,VALID,121,VALID,0,
2010-04-24, 00:26:04,VALID,1001.09,VALID,0,VALID,92.2726,VALID,0,VALID,23.9159,VALID,121,VALID,0,
2010-04-24, 00:27:04,VALID,1001.06,VALID,0,VALID,92.326,VALID,0,VALID,23.9354,VALID,121,VALID,0,
2010-04-24, 00:28:04,VALID,1001.04,VALID,0,VALID,92.2955,VALID,0,VALID,23.9159,VALID,121,VALID,0,
2010-04-24, 00:29:04,VALID,1001.01,VALID,0,VALID,92.2955,VALID,0,VALID,23.9159,VALID,121,VALID,0,
2010-04-24, 00:30:04,VALID,1001,VALID,0,VALID,92.3642,VALID,0,VALID,23.8945,VALID,121,VALID,0,
2010-04-24, 00:31:04,VALID,1000.98,VALID,0,VALID,92.3489,VALID,0,VALID,23.9159,VALID,121,VALID,0,
2010-04-24, 00:32:04,VALID,1000.98,VALID,0,VALID,92.41,VALID,0,VALID,23.9159,VALID,121,VALID,0,
2010-04-24, 00:33:04,VALID,1000.96,VALID,0,VALID,92.41,VALID,0,VALID,23.9159,VALID,121,VALID,0,
2010-04-24, 00:34:04,VALID,1000.92,VALID,0,VALID,92.4405,VALID,0,VALID,23.9159,VALID,121,VALID,0,
2010-04-24, 00:35:04,VALID,1000.92,VALID,0,VALID,92.3642,VALID,0,VALID,23.8963,VALID,121,VALID,0,
2010-04-24, 00:36:04,VALID,1000.91,VALID,0,VALID,92.326,VALID,0,VALID,23.8378,VALID,121,VALID,0,
2010-04-24, 00:37:04,VALID,1000.93,VALID,0,VALID,92.3642,VALID,0,VALID,23.8378,VALID,121,VALID,0,
2010-04-24, 00:38:04,VALID,1000.93,VALID,0,VALID,92.4557,VALID,0,VALID,23.8378,VALID,121,VALID,0,
2010-04-24, 00:39:04,VALID,1000.92,VALID,0,VALID,92.5702,VALID,0,VALID,23.8573,VALID,121,VALID,0,
2010-04-24, 00:40:04,VALID,1000.96,VALID,0,VALID,92.6083,VALID,0,VALID,23.8768,VALID,121,VALID,0,
2010-04-24, 00:41:04,VALID,1000.97,VALID,0,VALID,92.5702,VALID,0,VALID,23.8768,VALID,121,VALID,0,
2010-04-24, 00:42:04,VALID,1000.93,VALID,0,VALID,92.532,VALID,0,VALID,23.8573,VALID,121,VALID,0,
2010-04-24, 00:43:04,VALID,1000.93,VALID,0,VALID,92.5854,VALID,0,VALID,23.8573,VALID,121,VALID,0,
2010-04-24, 00:44:04,VALID,1000.91,VALID,0,VALID,92.5931,VALID,0,VALID,23.8573,VALID,121,VALID,0,
2010-04-24, 00:45:04,VALID,1000.94,VALID,0,VALID,92.5473,VALID,0,VALID,23.8378,VALID,121,VALID,0,
2010-04-24, 00:46:04,VALID,1000.95,VALID,0,VALID,92.5778,VALID,0,VALID,23.8183,VALID,121,VALID,0,
2010-04-24, 00:47:04,VALID,1000.94,VALID,0,VALID,92.6846,VALID,0,VALID,23.8378,VALID,121,VALID,0,
2010-04-24, 00:48:04,VALID,1000.94,VALID,0,VALID,92.6923,VALID,0,VALID,23.8573,VALID,121,VALID,0,
2010-04-24, 00:49:04,VALID,1000.97,VALID,0,VALID,92.7304,VALID,0,VALID,23.8573,VALID,121,VALID,0,
2010-04-24, 00:50:04,VALID,1000.94,VALID,0,VALID,92.7304,VALID,0,VALID,23.8573,VALID,121,VALID,0,
2010-04-24, 00:51:04,VALID,1000.96,VALID,0,VALID,92.6999,VALID,0,VALID,23.8573,VALID,121,VALID,0,
2010-04-24, 00:52:04,VALID,1000.95,VALID,0,VALID,92.7457,VALID,0,VALID,23.8378,VALID,121,VALID,0,
2010-04-24, 00:53:04,VALID,1000.88,VALID,0,VALID,92.7609,VALID,0,VALID,23.8378,VALID,121,VALID,0,
2010-04-24, 00:54:04,VALID,1000.89,VALID,0,VALID,92.8296,VALID,0,VALID,23.8786,VALID,121,VALID,0,
2010-04-24, 00:55:04,VALID,1000.88,VALID,0,VALID,92.8143,VALID,0,VALID,23.8768,VALID,121,VALID,0,
2010-04-24, 00:56:04,VALID,1000.86,VALID,0,VALID,92.8067,VALID,0,VALID,23.8768,VALID,121,VALID,0,
2010-04-24, 00:57:04,VALID,1000.84,VALID,0,VALID,92.7838,VALID,0,VALID,23.8378,VALID,121,VALID,0,
2010-04-24, 00:58:04,VALID,1000.85,VALID,0,VALID,92.8525,VALID,0,VALID,23.8573,VALID,121,VALID,0,
2010-04-24, 00:59:04,VALID,1000.81,VALID,0,VALID,92.8601,VALID,0,VALID,23.8378,VALID,121,VALID,0,
2010-04-24, 01:00:04,VALID,1000.83,VALID,0,VALID,92.8372,VALID,0,VALID,23.8378,VALID,121,VALID,0,
2010-04-24, 01:01:04,VALID,1000.83,VALID,0,VALID,92.8601,VALID,0,VALID,23.8378,VALID,121,VALID,0,
2010-04-24, 01:02:04,VALID,1000.85,VALID,0,VALID,92.9288,VALID,0,VALID,23.8378,VALID,121,VALID,0,
2010-04-24, 01:03:04,VALID,1000.85,VALID,0,VALID,92.9059,VALID,0,VALID,23.8378,VALID,121,VALID,0,
2010-04-24, 01:04:04,VALID,1000.9,VALID,0,VALID,92.8906,VALID,0,VALID,23.8183,VALID,121,VALID,0,
2010-04-24, 01:05:04,VALID,1000.92,VALID,0,VALID,92.8372,VALID,0,VALID,23.7988,VALID,121,VALID,0,
2010-04-24, 01:06:04,VALID,1000.91,VALID,0,VALID,92.8601,VALID,0,VALID,23.7597,VALID,146,VALID,0.176953,
2010-04-24, 01:07:04,VALID,1000.88,VALID,0,VALID,92.883,VALID,0,VALID,23.7597,VALID,156,VALID,0.603125,
2010-04-24, 01:08:04,VALID,1000.85,VALID,0,VALID,92.9288,VALID,0,VALID,23.7402,VALID,160,VALID,0.966406,
2010-04-24, 01:09:04,VALID,1000.83,VALID,0,VALID,93.0737,VALID,0,VALID,23.7988,VALID,158,VALID,1.22344,
2010-04-24, 01:10:04,VALID,1000.81,VALID,0,VALID,93.0966,VALID,0,VALID,23.8573,VALID,171,VALID,1.05938,
2010-04-24, 01:11:04,VALID,1000.8,VALID,0,VALID,93.089,VALID,0,VALID,23.9354,VALID,180,VALID,0.895703,
2010-04-24, 01:12:04,VALID,1000.77,VALID,0,VALID,93.0356,VALID,0,VALID,23.9549,VALID,181,VALID,0.867969,
2010-04-24, 01:13:04,VALID,1000.79,VALID,0,VALID,92.9211,VALID,0,VALID,23.9939,VALID,172,VALID,0.980859,
2010-04-24, 01:14:04,VALID,1000.76,VALID,0,VALID,92.7457,VALID,0,VALID,24.0329,VALID,169,VALID,0.846484,
2010-04-24, 01:15:04,VALID,1000.74,VALID,0,VALID,92.5549,VALID,0,VALID,24.0329,VALID,162,VALID,0.663672,
2010-04-24, 01:16:04,VALID,1000.7,VALID,0,VALID,92.3413,VALID,0,VALID,24.0543,VALID,162,VALID,0,
2010-04-24, 01:17:04,VALID,1000.7,VALID,0,VALID,92.2268,VALID,0,VALID,24.0543,VALID,162,VALID,0,
2010-04-24, 01:18:04,VALID,1000.65,VALID,0,VALID,92.1811,VALID,0,VALID,24.0134,VALID,162,VALID,0,
2010-04-24, 01:19:04,VALID,1000.63,VALID,0,VALID,92.0514,VALID,0,VALID,23.9939,VALID,162,VALID,0,
2010-04-24, 01:20:04,VALID,1000.61,VALID,0,VALID,91.8683,VALID,0,VALID,23.9354,VALID,162,VALID,0,
2010-04-24, 01:21:04,VALID,1000.58,VALID,0,VALID,91.853,VALID,0,VALID,23.8963,VALID,162,VALID,0,
2010-04-24, 01:22:04,VALID,1000.55,VALID,0,VALID,91.8911,VALID,0,VALID,23.8786,VALID,162,VALID,0,
2010-04-24, 01:23:04,VALID,1000.53,VALID,0,VALID,91.8759,VALID,0,VALID,23.8396,VALID,162,VALID,0,
2010-04-24, 01:24:04,VALID,1000.48,VALID,0,VALID,91.8759,VALID,0,VALID,23.7988,VALID,162,VALID,0,
2010-04-24, 01:25:04,VALID,1000.47,VALID,0,VALID,92.0209,VALID,0,VALID,23.7793,VALID,162,VALID,0,
2010-04-24, 01:26:04,VALID,1000.45,VALID,0,VALID,92.0819,VALID,0,VALID,23.7597,VALID,162,VALID,0,
2010-04-24, 01:27:04,VALID,1000.43,VALID,0,VALID,92.2421,VALID,0,VALID,23.7793,VALID,162,VALID,0,
2010-04-24, 01:28:04,VALID,1000.43,VALID,0,VALID,92.3489,VALID,0,VALID,23.7793,VALID,162,VALID,0,
2010-04-24, 01:29:04,VALID,1000.41,VALID,0,VALID,92.3642,VALID,0,VALID,23.8006,VALID,162,VALID,0,
2010-04-24, 01:30:04,VALID,1000.4,VALID,0,VALID,92.4023,VALID,0,VALID,23.7597,VALID,162,VALID,0,
2010-04-24, 01:31:04,VALID,1000.38,VALID,0,VALID,92.3794,VALID,0,VALID,23.7402,VALID,162,VALID,0,
2010-04-24, 01:32:04,VALID,1000.36,VALID,0,VALID,92.4176,VALID,0,VALID,23.7616,VALID,162,VALID,0,
2010-04-24, 01:33:04,VALID,1000.36,VALID,0,VALID,92.4176,VALID,0,VALID,23.7207,VALID,162,VALID,0,
2010-04-24, 01:34:04,VALID,1000.33,VALID,0,VALID,92.4328,VALID,0,VALID,23.7012,VALID,162,VALID,0,
2010-04-24, 01:35:04,VALID,1000.28,VALID,0,VALID,92.41,VALID,0,VALID,23.6622,VALID,162,VALID,0,
2010-04-24, 01:36:04,VALID,1000.29,VALID,0,VALID,92.5397,VALID,0,VALID,23.6232,VALID,162,VALID,0,
2010-04-24, 01:37:04,VALID,1000.28,VALID,0,VALID,92.4634,VALID,0,VALID,23.6036,VALID,162,VALID,0,
2010-04-24, 01:38:04,VALID,1000.26,VALID,0,VALID,92.0819,VALID,0,VALID,23.5079,VALID,115,VALID,0,
2010-04-24, 01:39:04,VALID,1000.26,VALID,0,VALID,92.6541,VALID,0,VALID,23.5061,VALID,77,VALID,0,
2010-04-24, 01:40:04,VALID,1000.25,VALID,0,VALID,92.8296,VALID,0,VALID,23.5256,VALID,53,VALID,0,
2010-04-24, 01:41:04,VALID,1000.25,VALID,0,VALID,92.9135,VALID,0,VALID,23.5646,VALID,53,VALID,0,
2010-04-24, 01:42:04,VALID,1000.26,VALID,0,VALID,92.7609,VALID,0,VALID,23.5274,VALID,48,VALID,0,
2010-04-24, 01:43:04,VALID,1000.24,VALID,0,VALID,92.8372,VALID,0,VALID,23.4866,VALID,28,VALID,0,
2010-04-24, 01:44:04,VALID,1000.26,VALID,0,VALID,92.7075,VALID,0,VALID,23.4475,VALID,20,VALID,1.10156,
2010-04-24, 01:45:04,VALID,1000.25,VALID,0,VALID,92.7304,VALID,0,VALID,23.4085,VALID,20,VALID,1.10352,
2010-04-24, 01:46:04,VALID,1000.24,VALID,0,VALID,92.8525,VALID,0,VALID,23.389,VALID,20,VALID,0.761719,
2010-04-24, 01:47:04,VALID,1000.21,VALID,0,VALID,92.6999,VALID,0,VALID,23.3695,VALID,20,VALID,0.8875,
2010-04-24, 01:48:04,VALID,1000.23,VALID,0,VALID,92.9745,VALID,0,VALID,23.3695,VALID,20,VALID,0.809766,
2010-04-24, 01:49:04,VALID,1000.19,VALID,0,VALID,93.1348,VALID,0,VALID,23.4085,VALID,20,VALID,0.588672,
2010-04-24, 01:50:04,VALID,1000.18,VALID,0,VALID,93.1653,VALID,0,VALID,23.4671,VALID,20,VALID,0.460938,
2010-04-24, 01:51:04,VALID,1000.17,VALID,0,VALID,93.028,VALID,0,VALID,23.4475,VALID,20,VALID,0.520312,
2010-04-24, 01:52:04,VALID,1000.18,VALID,0,VALID,93.0432,VALID,0,VALID,23.4085,VALID,20,VALID,0.547656,
2010-04-24, 01:53:04,VALID,1000.2,VALID,0,VALID,93.1805,VALID,0,VALID,23.4493,VALID,20,VALID,0.658203,
2010-04-24, 01:54:04,VALID,1000.18,VALID,0,VALID,93.2645,VALID,0,VALID,23.4671,VALID,20,VALID,0.688281,
2010-04-24, 01:55:04,VALID,1000.18,VALID,0,VALID,93.1958,VALID,0,VALID,23.4866,VALID,20,VALID,0.691406,
2010-04-24, 01:56:04,VALID,1000.19,VALID,0,VALID,92.9974,VALID,0,VALID,23.4085,VALID,20,VALID,0.687109,
2010-04-24, 01:57:04,VALID,1000.21,VALID,0,VALID,93.15,VALID,0,VALID,23.389,VALID,20,VALID,0.944922,
2010-04-24, 01:58:04,VALID,1000.2,VALID,0,VALID,93.2797,VALID,0,VALID,23.4671,VALID,20,VALID,0.901172,
2010-04-24, 01:59:04,VALID,1000.17,VALID,0,VALID,93.1653,VALID,0,VALID,23.4671,VALID,20,VALID,0.917188,
2010-04-24, 02:00:04,VALID,1000.21,VALID,0,VALID,93.0661,VALID,0,VALID,23.3695,VALID,35,VALID,0.722656,
2010-04-24, 02:01:04,VALID,1000.2,VALID,0,VALID,93.1805,VALID,0,VALID,23.389,VALID,35,VALID,0.698828,
2010-04-24, 02:02:04,VALID,1000.18,VALID,0,VALID,93.234,VALID,0,VALID,23.3872,VALID,35,VALID,0.606641,
2010-04-24, 02:03:04,VALID,1000.2,VALID,0,VALID,93.2187,VALID,0,VALID,23.3872,VALID,35,VALID,0.391016,
2010-04-24, 02:04:04,VALID,1000.21,VALID,0,VALID,93.2111,VALID,0.112286,VALID,23.3677,VALID,35,VALID,0.284766,
2010-04-24, 02:05:04,VALID,1000.21,VALID,0,VALID,93.1958,VALID,0,VALID,23.3677,VALID,35,VALID,0.201562,
2010-04-24, 02:06:04,VALID,1000.21,VALID,0,VALID,93.15,VALID,0,VALID,23.35,VALID,35,VALID,0,
2010-04-24, 02:07:04,VALID,1000.21,VALID,0,VALID,93.0814,VALID,0,VALID,23.311,VALID,35,VALID,0,
2010-04-24, 02:08:04,VALID,1000.19,VALID,0,VALID,93.0508,VALID,0,VALID,23.2507,VALID,35,VALID,0,
2010-04-24, 02:09:04,VALID,1000.14,VALID,0,VALID,93.0203,VALID,0,VALID,23.2312,VALID,35,VALID,0,
2010-04-24, 02:10:04,VALID,1000.12,VALID,0,VALID,93.028,VALID,0,VALID,23.1921,VALID,35,VALID,0,
2010-04-24, 02:11:04,VALID,1000.08,VALID,0,VALID,93.0203,VALID,0,VALID,23.1726,VALID,35,VALID,0,
2010-04-24, 02:12:04,VALID,1000.08,VALID,0,VALID,93.0356,VALID,0,VALID,23.1531,VALID,35,VALID,0,
2010-04-24, 02:13:04,VALID,1000.04,VALID,0,VALID,93.089,VALID,0,VALID,23.1726,VALID,35,VALID,0,
2010-04-24, 02:14:04,VALID,1000.04,VALID,0,VALID,93.1958,VALID,0,VALID,23.1921,VALID,35,VALID,0,
2010-04-24, 02:15:04,VALID,1000,VALID,0,VALID,93.2797,VALID,0.112286,VALID,23.2117,VALID,35,VALID,0,
2010-04-24, 02:16:04,VALID,999.985,VALID,0,VALID,93.3026,VALID,0,VALID,23.2507,VALID,35,VALID,0,
2010-04-24, 02:17:04,VALID,999.955,VALID,0,VALID,93.2797,VALID,0,VALID,23.2719,VALID,35,VALID,0,
2010-04-24, 02:18:04,VALID,999.915,VALID,0,VALID,93.2797,VALID,0,VALID,23.2719,VALID,35,VALID,0,
2010-04-24, 02:19:04,VALID,999.918,VALID,0,VALID,93.3255,VALID,0,VALID,23.311,VALID,35,VALID,0,
2010-04-24, 02:20:04,VALID,999.902,VALID,0,VALID,93.356,VALID,0,VALID,23.3713,VALID,35,VALID,0,
2010-04-24, 02:21:04,VALID,999.876,VALID,0,VALID,93.356,VALID,0,VALID,23.3695,VALID,35,VALID,0,
2010-04-24, 02:22:04,VALID,999.886,VALID,0,VALID,93.3637,VALID,0,VALID,23.3695,VALID,35,VALID,0,
2010-04-24, 02:23:04,VALID,999.894,VALID,0,VALID,93.3713,VALID,0,VALID,23.3695,VALID,35,VALID,0,
2010-04-24, 02:24:04,VALID,999.929,VALID,0,VALID,93.3866,VALID,0,VALID,23.389,VALID,35,VALID,0,
2010-04-24, 02:25:04,VALID,999.904,VALID,0,VALID,93.4094,VALID,0,VALID,23.4085,VALID,35,VALID,0,
2010-04-24, 02:26:04,VALID,999.899,VALID,0,VALID,93.4018,VALID,0,VALID,23.389,VALID,35,VALID,0,
2010-04-24, 02:27:04,VALID,999.903,VALID,0,VALID,93.4018,VALID,0,VALID,23.389,VALID,35,VALID,0,
2010-04-24, 02:28:04,VALID,999.962,VALID,0,VALID,93.3942,VALID,0,VALID,23.35,VALID,35,VALID,0,
2010-04-24, 02:29:04,VALID,999.945,VALID,0,VALID,93.4094,VALID,0,VALID,23.3713,VALID,35,VALID,0,
2010-04-24, 02:30:04,VALID,999.96,VALID,0,VALID,93.4857,VALID,0,VALID,23.3908,VALID,35,VALID,0,
2010-04-24, 02:31:04,VALID,999.958,VALID,0,VALID,93.3713,VALID,0,VALID,23.35,VALID,35,VALID,0.0152344,
2010-04-24, 02:32:04,VALID,999.974,VALID,0,VALID,93.2797,VALID,0,VALID,23.311,VALID,35,VALID,0,
2010-04-24, 02:33:04,VALID,999.926,VALID,0,VALID,93.2645,VALID,0,VALID,23.2312,VALID,35,VALID,0,
2010-04-24, 02:34:04,VALID,999.945,VALID,0,VALID,93.2416,VALID,0,VALID,23.1726,VALID,35,VALID,0,
2010-04-24, 02:35:04,VALID,999.946,VALID,0,VALID,93.3026,VALID,0.112286,VALID,23.1531,VALID,35,VALID,0,
2010-04-24, 02:36:04,VALID,999.957,VALID,0,VALID,93.3789,VALID,0.112286,VALID,23.1726,VALID,35,VALID,0,
2010-04-24, 02:37:04,VALID,999.93,VALID,0,VALID,93.3713,VALID,0,VALID,23.1726,VALID,35,VALID,0,
2010-04-24, 02:38:04,VALID,999.93,VALID,0,VALID,93.4094,VALID,0,VALID,23.1726,VALID,35,VALID,0,
2010-04-24, 02:39:04,VALID,999.906,VALID,0,VALID,93.4552,VALID,0,VALID,23.2117,VALID,17,VALID,0,
2010-04-24, 02:40:04,VALID,999.916,VALID,0,VALID,93.4018,VALID,0,VALID,23.1921,VALID,17,VALID,0.821484,
2010-04-24, 02:41:04,VALID,999.912,VALID,0,VALID,93.4628,VALID,0,VALID,23.1939,VALID,17,VALID,1.03984,
2010-04-24, 02:42:04,VALID,999.902,VALID,0,VALID,93.6002,VALID,0,VALID,23.2312,VALID,17,VALID,1.07383,
2010-04-24, 02:43:04,VALID,999.91,VALID,0,VALID,93.6383,VALID,0,VALID,23.2897,VALID,20,VALID,1.09883,
2010-04-24, 02:44:04,VALID,999.898,VALID,0,VALID,93.6002,VALID,0,VALID,23.3305,VALID,23,VALID,1.12695,
2010-04-24, 02:45:04,VALID,999.896,VALID,0,VALID,93.4094,VALID,0,VALID,23.2312,VALID,32,VALID,1.30664,
2010-04-24, 02:46:04,VALID,999.915,VALID,0,VALID,93.44,VALID,0,VALID,23.1921,VALID,41,VALID,1.36406,
2010-04-24, 02:47:04,VALID,999.919,VALID,0,VALID,93.5468,VALID,0,VALID,23.1939,VALID,42,VALID,1.06367,
2010-04-24, 02:48:04,VALID,999.927,VALID,0,VALID,93.4934,VALID,0,VALID,23.1939,VALID,52,VALID,1.25234,
2010-04-24, 02:49:04,VALID,999.938,VALID,0,VALID,93.5391,VALID,0,VALID,23.1939,VALID,60,VALID,1.15664,
2010-04-24, 02:50:04,VALID,999.918,VALID,0,VALID,93.5315,VALID,0,VALID,23.1744,VALID,65,VALID,1.01133,
2010-04-24, 02:51:04,VALID,999.917,VALID,0,VALID,93.5697,VALID,0,VALID,23.2134,VALID,65,VALID,0.720703,
2010-04-24, 02:52:04,VALID,999.918,VALID,0,VALID,93.5544,VALID,0,VALID,23.2134,VALID,65,VALID,0.567969,
2010-04-24, 02:53:04,VALID,999.89,VALID,0,VALID,93.4857,VALID,0,VALID,23.2134,VALID,65,VALID,0.376953,
2010-04-24, 02:54:04,VALID,999.923,VALID,0,VALID,93.4628,VALID,0,VALID,23.1549,VALID,65,VALID,0.158984,
2010-04-24, 02:55:04,VALID,999.951,VALID,0,VALID,93.4323,VALID,0,VALID,23.1549,VALID,65,VALID,0,
2010-04-24, 02:56:04,VALID,999.975,VALID,0,VALID,93.4552,VALID,0,VALID,23.1354,VALID,65,VALID,0,
2010-04-24, 02:57:04,VALID,999.972,VALID,0,VALID,93.501,VALID,0,VALID,23.1744,VALID,65,VALID,0,
2010-04-24, 02:58:04,VALID,999.969,VALID,0,VALID,93.5468,VALID,0,VALID,23.1939,VALID,65,VALID,0,
2010-04-24, 02:59:04,VALID,999.996,VALID,0,VALID,93.5391,VALID,0,VALID,23.1939,VALID,65,VALID,0,
2010-04-24, 03:00:04,VALID,999.991,VALID,0,VALID,93.5315,VALID,0,VALID,23.2134,VALID,65,VALID,0.00390625,
2010-04-24, 03:01:04,VALID,1000.03,VALID,0,VALID,93.562,VALID,0,VALID,23.2134,VALID,65,VALID,0.503906,
2010-04-24, 03:02:04,VALID,1000.01,VALID,0,VALID,93.5468,VALID,0.112286,VALID,23.2117,VALID,65,VALID,0.573438,
2010-04-24, 03:03:04,VALID,999.972,VALID,0,VALID,93.5391,VALID,0,VALID,23.2117,VALID,65,VALID,0.444141,
2010-04-24, 03:04:04,VALID,999.98,VALID,0,VALID,93.5315,VALID,0,VALID,23.1921,VALID,65,VALID,0.4125,
2010-04-24, 03:05:04,VALID,999.942,VALID,0,VALID,93.5926,VALID,0.112286,VALID,23.2117,VALID,65,VALID,0.507422,
2010-04-24, 03:06:04,VALID,999.94,VALID,0,VALID,93.6231,VALID,0,VALID,23.2507,VALID,65,VALID,0.544531,
2010-04-24, 03:07:04,VALID,999.945,VALID,0,VALID,93.5697,VALID,0,VALID,23.2702,VALID,65,VALID,0.559375,
2010-04-24, 03:08:04,VALID,999.959,VALID,0,VALID,93.5239,VALID,0,VALID,23.2507,VALID,65,VALID,0.58125,
2010-04-24, 03:09:04,VALID,999.956,VALID,0,VALID,93.4171,VALID,0,VALID,23.2099,VALID,65,VALID,0.819531,
2010-04-24, 03:10:04,VALID,999.974,VALID,0,VALID,93.4476,VALID,0,VALID,23.1921,VALID,65,VALID,0.739453,
2010-04-24, 03:11:04,VALID,999.961,VALID,0,VALID,93.44,VALID,0,VALID,23.1921,VALID,65,VALID,0.578125,
2010-04-24, 03:12:04,VALID,999.971,VALID,0,VALID,93.4247,VALID,0,VALID,23.1726,VALID,65,VALID,0.301562,
2010-04-24, 03:13:04,VALID,999.972,VALID,0,VALID,93.3484,VALID,0,VALID,23.1336,VALID,65,VALID,0,
2010-04-24, 03:14:04,VALID,999.959,VALID,0,VALID,93.3637,VALID,0,VALID,23.1141,VALID,37,VALID,0,
2010-04-24, 03:15:04,VALID,999.978,VALID,0,VALID,93.4171,VALID,0,VALID,23.1531,VALID,29,VALID,0,
2010-04-24, 03:16:04,VALID,1000.02,VALID,0,VALID,93.44,VALID,0.112286,VALID,23.1531,VALID,29,VALID,0,
2010-04-24, 03:17:04,VALID,1000.01,VALID,0,VALID,93.4476,VALID,0,VALID,23.1744,VALID,29,VALID,0,
2010-04-24, 03:18:04,VALID,1000.05,VALID,0,VALID,93.4781,VALID,0,VALID,23.2134,VALID,16,VALID,0,
2010-04-24, 03:19:04,VALID,1000.06,VALID,0,VALID,93.5163,VALID,0,VALID,23.2329,VALID,16,VALID,0.636719,
2010-04-24, 03:20:04,VALID,1000.08,VALID,0,VALID,93.5315,VALID,0,VALID,23.2524,VALID,16,VALID,0.323438,
2010-04-24, 03:21:04,VALID,1000.11,VALID,0,VALID,93.5163,VALID,0,VALID,23.2915,VALID,16,VALID,0,
2010-04-24, 03:22:04,VALID,1000.12,VALID,0,VALID,93.5086,VALID,0,VALID,23.2915,VALID,16,VALID,0,
2010-04-24, 03:23:04,VALID,1000.11,VALID,0,VALID,93.4857,VALID,0,VALID,23.2702,VALID,16,VALID,0,
2010-04-24, 03:24:04,VALID,1000.1,VALID,0,VALID,93.4934,VALID,0,VALID,23.2915,VALID,16,VALID,0,
2010-04-24, 03:25:04,VALID,1000.1,VALID,0,VALID,93.4705,VALID,0,VALID,23.2915,VALID,16,VALID,0,
2010-04-24, 03:26:04,VALID,1000.11,VALID,0,VALID,93.4476,VALID,0,VALID,23.2915,VALID,16,VALID,0,
2010-04-24, 03:27:04,VALID,1000.08,VALID,0,VALID,93.44,VALID,0,VALID,23.2915,VALID,16,VALID,0,
2010-04-24, 03:28:04,VALID,1000.07,VALID,0,VALID,93.44,VALID,0,VALID,23.2915,VALID,16,VALID,0,
2010-04-24, 03:29:04,VALID,1000.05,VALID,0,VALID,93.4323,VALID,0,VALID,23.2915,VALID,16,VALID,0,
2010-04-24, 03:30:04,VALID,1000.08,VALID,0,VALID,93.4781,VALID,0,VALID,23.2719,VALID,16,VALID,0,
2010-04-24, 03:31:04,VALID,1000.08,VALID,0,VALID,93.4705,VALID,0,VALID,23.311,VALID,16,VALID,0,
2010-04-24, 03:32:04,VALID,1000.09,VALID,0,VALID,93.4781,VALID,0,VALID,23.311,VALID,16,VALID,0,
2010-04-24, 03:33:04,VALID,1000.09,VALID,0,VALID,93.4781,VALID,0,VALID,23.311,VALID,16,VALID,0,
2010-04-24, 03:34:04,VALID,1000.13,VALID,0,VALID,93.4323,VALID,0,VALID,23.2897,VALID,16,VALID,0,
2010-04-24, 03:35:04,VALID,1000.17,VALID,0,VALID,93.44,VALID,0,VALID,23.2915,VALID,16,VALID,0,
2010-04-24, 03:36:04,VALID,1000.15,VALID,0,VALID,93.4552,VALID,0,VALID,23.2897,VALID,16,VALID,0,
2010-04-24, 03:37:04,VALID,1000.2,VALID,0,VALID,93.4171,VALID,0,VALID,23.311,VALID,16,VALID,0,
2010-04-24, 03:38:04,VALID,1000.19,VALID,0,VALID,93.4552,VALID,0,VALID,23.311,VALID,16,VALID,0,
2010-04-24, 03:39:04,VALID,1000.21,VALID,0,VALID,93.4857,VALID,0,VALID,23.3305,VALID,16,VALID,0,
2010-04-24, 03:40:04,VALID,1000.24,VALID,0,VALID,93.5163,VALID,0,VALID,23.35,VALID,16,VALID,0,
2010-04-24, 03:41:04,VALID,1000.24,VALID,0,VALID,93.501,VALID,0,VALID,23.389,VALID,16,VALID,0,
2010-04-24, 03:42:04,VALID,1000.29,VALID,0,VALID,93.4934,VALID,0,VALID,23.389,VALID,16,VALID,0,
2010-04-24, 03:43:04,VALID,1000.28,VALID,0,VALID,93.4171,VALID,0,VALID,23.3695,VALID,16,VALID,0,
2010-04-24, 03:44:04,VALID,1000.32,VALID,0,VALID,93.4857,VALID,0,VALID,23.3695,VALID,30,VALID,0,
2010-04-24, 03:45:04,VALID,1000.32,VALID,0,VALID,93.3866,VALID,0,VALID,23.35,VALID,47,VALID,0,
2010-04-24, 03:46:04,VALID,1000.37,VALID,0,VALID,93.2111,VALID,0,VALID,23.311,VALID,37,VALID,0,
2010-04-24, 03:47:04,VALID,1000.33,VALID,0,VALID,93.2187,VALID,0,VALID,23.2915,VALID,37,VALID,0,
2010-04-24, 03:48:04,VALID,1000.33,VALID,0,VALID,93.1577,VALID,0,VALID,23.2719,VALID,37,VALID,0,
2010-04-24, 03:49:04,VALID,1000.31,VALID,0,VALID,93.1424,VALID,0,VALID,23.2524,VALID,37,VALID,0,
2010-04-24, 03:50:04,VALID,1000.31,VALID,0,VALID,93.1805,VALID,0,VALID,23.2507,VALID,37,VALID,0,
2010-04-24, 03:51:04,VALID,1000.34,VALID,0,VALID,93.3026,VALID,0,VALID,23.2915,VALID,37,VALID,0,
2010-04-24, 03:52:04,VALID,1000.36,VALID,0,VALID,93.3331,VALID,0,VALID,23.3305,VALID,37,VALID,0,
2010-04-24, 03:53:04,VALID,1000.37,VALID,0,VALID,93.3103,VALID,0,VALID,23.3305,VALID,37,VALID,0,
2010-04-24, 03:54:04,VALID,1000.41,VALID,0,VALID,93.2874,VALID,0,VALID,23.35,VALID,37,VALID,0,
2010-04-24, 03:55:04,VALID,1000.41,VALID,0,VALID,93.2187,VALID,0,VALID,23.311,VALID,37,VALID,0,
2010-04-24, 03:56:04,VALID,1000.46,VALID,0,VALID,93.1882,VALID,0,VALID,23.311,VALID,37,VALID,0,